NOAA 20 (JPSS-1) (43013 NORAD) Tracking and Keplerian Element Data

This shows tracking and keplerian element data for the satellite.

Feedback or suggestion? Click here.




ElementValue
Catalog43013
NameNOAA 20 (JPSS-1)
Epoch Orbit33962
Epoch Day160.17928523
Epoch Year2024
RAAN98.2516
Inclination98.7063
Eccentricity4.88E-05
Argument of Perigee139.9831
Mean Anonmoly220.1381
Mean Motion14.19593807
Decay Rate1.73E-06
L11 43013U 17073A 24160.17928523 .00000173 00000+0 10267-3 0 9998
L22 43013 98.7063 98.2516 0000488 139.9831 220.1381 14.19593807339628



Live tracking and technical data element details for NOAA 20 (JPSS-1) (NORAD 43013). NOAA 20 (JPSS-1) can be tracked NOW for your location showing map with azimuth and elevation plus other details from your city location.







IsCatalogInMostPopularTable: catalog: 43013, numindb: 1156
Update: records affected: 1



GetName: 43013 NOAA 20 (JPSS-1)

Hit Count: updated at: Tue, 17 Sep 2024 11:17:03 GMT